Weather in Himare

Albania     40°06′10″N   19°44′44″E
temp.,
°C
wind,
m/s
gust,
m/s
humid.,
%
clouds,
%
prec.,
mm/h
press.,
hPa
HPBL,
m
25 february, thu
thu2501:00+16se22670 0.0 103126
04:00+16ese33590 0.0 103071
07:00+15se22590 0.0 103186
10:00+15sse22500 0.0 1031110
13:00+15w22490 0.0 1031115
16:00+16w456822 0.0 1030204
19:00+16w22757 0.0 103052
22:00+16sw01760 0.0 103126
26 february, fri
fri2601:00+16ese11720 0.0 103023
04:00+15se22690 0.0 102856
07:00+15ese22630 0.0 1028102
10:00+15sse23600 0.0 1028128
13:00+14wsw01570 0.0 1026100
16:00+14w12670 0.0 1025164
19:00+15ese22720 0.0 102569
22:00+15se00770 0.0 102429
27 february, sat
sat2701:00+15ese11720 0.0 102351
04:00+15e12670 0.0 102266
07:00+15ese12660 0.0 102197
10:00+15ssw22670 0.0 1021162
13:00+15w23700 0.0 1020147
16:00+16w23730 0.0 101994
19:00+16ne23750 0.0 101935
22:00+16ene22760 0.0 102029
28 february, sun
sun2801:00+16ese22770 0.0 102032
04:00+15se12760 0.0 102069
07:00+15ene23660 0.0 1021126
10:00+15s22650 0.0 1022105
13:00+15w22650 0.0 1023123
16:00+15wsw33720 0.1 1023257
19:00+15sse33770 0.1 1025268
22:00+15ese44650 0.1 1027339
1 march, mon
mon101:00+14e45480 0.1 1028320
04:00+14ese33430 0.0 1027300
07:00+13se224636 0.0 1028386
10:00+13se334746 0.0 1029291
13:00+13se015160 0.0 1028182
16:00+13wsw44685 0.0 1027397
19:00+14w33643 0.0 1028602
22:00+14s11600 0.0 1030461